TimeCST,TemperatureF,Dew PointF,Humidity,Sea Level PressureIn,VisibilityMPH,Wind Direction,Wind SpeedMPH,Gust SpeedMPH,PrecipitationIn,Events,Conditions,WindDirDegrees,DateUTC
12:56 AM,43.0,43.0,100,29.76,4.0,SE,3.5,-,N/A,,Clear,140,2013-12-03 06:56:00
1:15 AM,42.8,42.8,100,29.76,2.5,SE,3.5,-,N/A,,Clear,140,2013-12-03 07:15:00
1:56 AM,41.9,41.9,100,29.76,2.5,SE,5.8,-,N/A,,Clear,140,2013-12-03 07:56:00
2:18 AM,42.8,42.8,100,29.77,1.5,SSE,3.5,-,N/A,,Clear,150,2013-12-03 08:18:00
2:27 AM,42.8,42.8,100,29.77,1.0,SE,3.5,-,N/A,,Clear,140,2013-12-03 08:27:00
2:48 AM,42.8,42.8,100,29.78,0.5,Calm,Calm,-,N/A,Fog,Fog,0,2013-12-03 08:48:00
2:56 AM,41.9,41.9,100,29.78,0.2,SSE,3.5,-,N/A,Fog,Fog,150,2013-12-03 08:56:00
3:10 AM,39.2,39.2,100,29.78,0.2,South,3.5,-,N/A,Fog,Fog,170,2013-12-03 09:10:00
3:18 AM,41.0,41.0,100,29.78,0.2,SSE,4.6,-,N/A,Fog,Fog,150,2013-12-03 09:18:00
3:34 AM,42.8,42.8,100,29.77,0.8,SE,5.8,-,N/A,,Mostly Cloudy,140,2013-12-03 09:34:00
3:39 AM,42.8,42.8,100,29.77,1.2,SSE,6.9,-,N/A,,Mostly Cloudy,150,2013-12-03 09:39:00
3:43 AM,44.6,44.6,100,29.77,1.5,SSE,6.9,-,N/A,,Mostly Cloudy,150,2013-12-03 09:43:00
3:56 AM,43.9,43.9,100,29.77,1.8,SSE,6.9,-,N/A,,Overcast,150,2013-12-03 09:56:00
4:07 AM,44.6,44.6,100,29.77,1.0,SSE,8.1,-,N/A,,Overcast,150,2013-12-03 10:07:00
4:11 AM,44.6,44.6,100,29.77,0.8,SSE,8.1,-,N/A,,Overcast,150,2013-12-03 10:11:00
4:19 AM,44.6,44.6,100,29.77,0.5,SSE,6.9,-,N/A,Fog,Fog,160,2013-12-03 10:19:00
4:30 AM,44.6,44.6,100,29.77,0.2,SSE,6.9,-,0.00,Fog-Rain,Light Rain,150,2013-12-03 10:30:00
4:56 AM,45.0,45.0,100,29.77,0.2,SSE,9.2,-,0.00,Fog-Rain,Light Rain,150,2013-12-03 10:56:00
5:56 AM,46.9,46.9,100,29.78,0.2,SSE,8.1,-,0.00,Fog-Rain,Light Rain,150,2013-12-03 11:56:00
6:20 AM,46.4,46.4,100,29.78,0.2,SSE,6.9,-,0.00,Fog-Rain,Light Rain,150,2013-12-03 12:20:00
6:36 AM,46.4,46.4,100,29.78,0.2,SSE,5.8,-,0.00,Rain,Light Rain,150,2013-12-03 12:36:00
6:56 AM,46.9,46.9,100,29.79,0.2,South,4.6,-,0.00,Rain,Light Rain,170,2013-12-03 12:56:00
7:56 AM,47.8,47.8,100,29.80,0.2,South,3.5,-,0.00,Fog-Rain,Light Rain,180,2013-12-03 13:56:00
8:21 AM,48.2,48.2,100,29.81,0.2,South,3.5,-,0.00,Fog,Fog,180,2013-12-03 14:21:00
8:56 AM,50.0,50.0,100,29.83,0.5,South,5.8,-,0.00,Fog,Fog,170,2013-12-03 14:56:00
9:16 AM,50.0,50.0,100,29.82,0.8,SSE,5.8,-,N/A,,Overcast,150,2013-12-03 15:16:00
9:33 AM,51.8,51.8,100,29.82,1.0,SE,5.8,-,N/A,,Overcast,130,2013-12-03 15:33:00
9:56 AM,50.9,50.9,100,29.83,1.0,South,6.9,-,N/A,,Overcast,170,2013-12-03 15:56:00
10:11 AM,51.8,51.8,100,29.82,1.0,SSE,8.1,-,N/A,,Overcast,150,2013-12-03 16:11:00
10:56 AM,52.9,52.9,100,29.79,2.0,SSE,13.8,-,N/A,,Overcast,150,2013-12-03 16:56:00
11:56 AM,54.9,52.9,93,29.78,4.0,SSE,10.4,-,N/A,,Overcast,150,2013-12-03 17:56:00
12:56 PM,56.8,52.9,87,29.75,5.0,South,10.4,-,N/A,,Mostly Cloudy,170,2013-12-03 18:56:00
1:28 PM,57.2,51.8,82,29.75,7.0,South,9.2,-,N/A,,Mostly Cloudy,170,2013-12-03 19:28:00
1:56 PM,57.9,50.9,77,29.75,7.0,SSE,10.4,-,N/A,,Mostly Cloudy,160,2013-12-03 19:56:00
2:56 PM,57.9,50.0,75,29.75,10.0,South,9.2,-,N/A,,Mostly Cloudy,170,2013-12-03 20:56:00
3:56 PM,57.9,50.9,77,29.74,10.0,SSE,5.8,-,N/A,,Mostly Cloudy,150,2013-12-03 21:56:00
4:56 PM,55.9,50.0,80,29.75,10.0,Calm,Calm,-,N/A,,Overcast,0,2013-12-03 22:56:00
5:56 PM,54.9,50.9,86,29.75,10.0,SE,4.6,-,N/A,,Overcast,140,2013-12-03 23:56:00
6:56 PM,52.9,50.9,93,29.76,10.0,SSE,8.1,-,N/A,,Scattered Clouds,160,2013-12-04 00:56:00
7:56 PM,52.0,52.0,100,29.77,8.0,South,8.1,-,N/A,,Clear,170,2013-12-04 01:56:00
8:56 PM,50.9,50.9,100,29.78,7.0,SSE,8.1,-,N/A,,Clear,160,2013-12-04 02:56:00
9:56 PM,50.9,50.9,100,29.77,5.0,SSE,9.2,-,N/A,,Clear,160,2013-12-04 03:56:00
10:46 PM,48.2,48.2,100,29.77,2.0,SE,4.6,-,N/A,,Clear,140,2013-12-04 04:46:00
10:56 PM,47.8,47.8,100,29.78,2.0,SE,5.8,-,N/A,,Clear,130,2013-12-04 04:56:00
11:40 PM,48.2,48.2,100,29.77,1.8,SSE,6.9,-,N/A,,Clear,160,2013-12-04 05:40:00
11:56 PM,48.9,48.9,100,29.77,2.5,SSE,6.9,-,N/A,,Partly Cloudy,160,2013-12-04 05:56:00